sat.trackr.live / text

‹ back to catalog

2021-050D

NORAD 48843 · 2021-050D

PAYLOAD ACTIVE UNKNOWN

§ Identity

Operator
Country
PRC
Launch date
2021-06-11
Launch site
TAISC
Launch vehicle
Mass (kg)
RCS (m²)

External: N2YO · Heavens-Above · Gunter

§ Orbital elements

Epoch: 2026-09-20T23:03:32.960160Z

Period
94.56 min
Inclination
97.3261°
Eccentricity
0.0009678
Mean motion
15.22769384 rev/d
Perigee alt
490.8 km
Apogee alt
504.1 km
Semi-major
6,875.6 km
B*
6.6006e-5
RAAN
337.8047°
Arg perigee
285.2224°
Mean anomaly
74.7943°
Rev number
29,354

§ Raw data

2021-050D1 48843U 21050D   26263.96079815  .00001474  00000+0  66006-4 0  99962 48843  97.3261 337.8047 0009678 285.2224  74.7943 15.22769384293548

JSON: /api/v1/satellites/48843 · /tle

For live sub-satellite position, see the globe view (requires WebGL).

§ Visibility from observer

Set your observer location to see the next 7 days of passes ≥ 10°. The values pass through the URL so the page stays shareable.

No JS? Fill the form by hand. The geolocation button needs JavaScript.

§ Radio — SatNOGS DB

ModeDescriptionDownlinkUplink
FM S-band telemetry 2.284 GHz

1 transmitter · refreshed weekly from db.satnogs.org